Regional Weather Roundup
Issued by NWS Upton, NY

Current Version | Previous Version | Graphics & Text | Print | Product List | Glossary Off
Versions: 1 2 3 4 5 6 7 8 9 10 11 12 13 14 15 16 17 18 19 20 21 22 23 24 25 26 27 28 29 30 31 32 33 34 35 36 37 38 39 40 41 42 43 44 45 46 47 48 49 50

000
ASUS41 KOKX 300005
RWROKX

REGIONAL WEATHER ROUNDUP
NATIONAL WEATHER SERVICE NEW YORK NY
800 PM EDT THU SEP 29 2016

NOTE: "FAIR" INDICATES FEW OR NO CLOUDS BELOW 12,000 FEET WITH NO
SIGNIFICANT WEATHER AND/OR OBSTRUCTIONS TO VISIBILITY.

NYZ071-072-176-178-NJZ106-104-300100-
NEW YORK CITY METRO AREA

CITY           SKY/WX    TMP DP  RH WIND       PRES   REMARKS
Central Park   CLOUDY    62  52  69 E8G24     30.38R
LaGuardia APRT CLOUDY    64  53  67 E17       30.35R
Kennedy INTL   CLOUDY    62  50  64 E15       30.37R
Newark/Liberty CLOUDY    63  53  70 E10G20    30.36R
Bronx Bot Gard   N/A     63  50  63 NE25      30.37R
Wall St Helipt CLOUDY    64  55  72 E13       30.36R
Teterboro      CLOUDY    64  52  64 E13G18    30.35R
$$

NYZ177-179-078>081-300100-
LONG ISLAND NEW YORK

CITY           SKY/WX    TMP DP  RH WIND       PRES   REMARKS
Farmingdale    CLOUDY    60  51  72 E15G25    30.37R
MacArthur/ISP  CLOUDY    59  51  75 NE17G23   30.36S
Shirley        CLOUDY    60  52  74 VRB6      30.38R
Riverhead      NOT AVBL
Westhampton    CLOUDY    59  50  72 E15G26    30.39R
Southampton    NOT AVBL
Bridgehampton  NOT AVBL
East Hampton   CLOUDY    59  51  75 E15G23    30.39S
Montauk          N/A     60  53  77 NE14G29   30.41S
$$

NYZ052-065-067-300100-
HUDSON VALLEY

CITY           SKY/WX    TMP DP  RH WIND       PRES   REMARKS
White Plains   PTCLDY    60  49  66 NE10      30.37R
Newburgh       MOCLDY    61  50  67 E16       30.40R
Montgomery     CLOUDY    61  47  59 NE12      30.39R
Poughkeepsie   PTCLDY    60  45  57 NE6       30.39R
Albany         MOCLDY    59  45  59 E6        30.43R
$$

NJZ001-105-106-008-010-013-015-019>022-104-300100-
NEW JERSEY

CITY           SKY/WX    TMP DP  RH WIND       PRES   REMARKS
Newark/Liberty CLOUDY    63  53  70 E10G20    30.36R
Teterboro      CLOUDY    64  52  64 E13G18    30.35R
Caldwell       LGT RAIN  62  53  72 E6        30.36R
Morristown     LGT RAIN  61  57  88 MISG      30.36R
Somerville     LGT RAIN  60  54  80 E6        30.32S
Linden         NOT AVBL
Sussex         LGT RAIN  60  50  69 NE9       30.37R
Abdover          N/A     59  53  80 VRB3      30.36R
Trenton        LGT RAIN  60  55  83 E15G23    30.31S
Millville      HVY RAIN  62  62 100 E16G24    30.24S FOG
Atlantic City  LGT RAIN  63  60  90 E22G29    30.25S FOG
Wrightstown    LGT RAIN  60  58  93 NE17G24   30.27S
Toms River     LGT RAIN  61  59  93 NE13G24   30.31S
Belmar         LGT RAIN  62  57  83 NE22G30   30.32S
$$

PAZ047>061-062-071-300100-
EASTERN PENNSYLVANIA

CITY           SKY/WX    TMP DP  RH WIND       PRES   REMARKS
Philadelphia   LGT RAIN  61  58  90 E16G24    30.28S
Allentown      LGT RAIN  59  54  83 E10       30.31S
Scranton       CLOUDY    60  50  69 E10       30.32S
$$

CTZ002-004>006-009-010-012-RIZ004-006-007-MAZ004-011-015-300100-
SOUTHERN NEW ENGLAND
 IN CT

CITY           SKY/WX    TMP DP  RH WIND       PRES   REMARKS
Bradley INTL   MOCLDY    57  45  64 NE12      30.45R
Hartford       CLOUDY    57  47  69 E7        30.44R
Danbury        PTCLDY    58  48  69 E9        30.40R
Wtrbury/Oxford MOCLDY    57  45  62 E12G20    30.41R
Bridgeport     MOCLDY    62  48  60 NE17      30.39R
Meriden        MOCLDY    58  47  66 VRB5      30.43R
New Haven      CLOUDY    58  47  66 NE9       30.41R
Chester        FAIR      55  48  76 NE10G17   30.41F
Groton         CLOUDY    59  49  69 NE15G23   30.42R
Wilimantic     CLOUDY    56  48  74 E7        30.45R

 IN RI

CITY           SKY/WX    TMP DP  RH WIND       PRES   REMARKS
Providence     CLOUDY    57  48  72 NE15G24   30.46R
Block Island   CLOUDY    59  53  80 NE17G30   30.41S
Westerly       MOCLDY    57  48  72 NE10      30.44R
 IN MA

CITY           SKY/WX    TMP DP  RH WIND       PRES   REMARKS
Boston         MOCLDY    57  50  77 NE20      30.49S
Worcester      CLEAR     50  45  83 NE12      30.47S
Westfield      PTCLDY    57  46  66 NE10      30.46R
Provincetown   MOCLDY    57  51  80 NE17G24   30.48R
Nantucket      CLOUDY    59  52  77 NE17G26   30.43R
$$

ANZ330-335-338-340-345-350-353-355-300100-
COASTAL MARINE OBSERVATIONS


STATION/POSITION TIME  SKY/WX   TEMP    WIND        PRES    VSBY  WAVE
                                AIR SEA DIR/SP/G                  HT/PER
                 (UTC)          (F)     (DEG/KT/KT) (MB)    (MI)  (FT/S)
NY HARB ENTRANCE 2250            64 70   70/ 29/ 35 1025.8         10/ 8
20S FIRE ISLAND  2250            63 66   70/ 27/ 35 1025.5         12/ 8
GREAT SOUTH BAY  2315            61 66   50/ 21/ 27   N/A
23 SSW MONTAUK P 2250            62 65   60/ 27/ 33 1027.7         10/ 8
15 E BARNEGAT LI 2330               70                N/A          13/ 9
HUDSON CANYON    2250            66 69              1023.8         12/ 8
KINGS POINT      2330            62 70              1027.7
EXECUTION ROCKS  2345            65      70/ 21/ 29   N/A
CENTRAL LI SOUND 2300            62 71   80/ 21/ 25   N/A           4/ 5
EASTERN LI SOUND NOT AVBL
ROBBINS REEF     2330            63      90/ 16/ 20 1027.9
$$


>>>>>>>>>>>>>>>>>>>>>>>>>>>> KEY <<<<<<<<<<<<<<<<<<<<<<<<<<<
>                                                          <
>     SKY/WX - Sky Condition/Present Weather               <
>     TMP    - Temperature in Fahrenheit                   <
>     DP     - Dew Point in Fahrenheit                     <
>     RH     - Relative Humidity in Percent                <
>     WIND   - Direction (from) and Speed in MPH           <
>     PRES   - Mean Sea Level Pressure (inches of Hg)      <
>     WCI    - Wind Chill Index                            <
>     VSB    - VISIBILITY IN MILES                         <
>     HX     - HEAT INDEX                                  <
>     TC     - TEMPERATURE IN CELSIUS                      <
>     VRB    - VARIABLE WIND DIRECTION                     <
>                                                          <
>>>>>>>>>>>>>>>>>>>>>>>>>>>> KEY <<<<<<<<<<<<<<<<<<<<<<<<<<<




USA.gov is the U.S. government's official web portal to all federal, state and local government web resources and services.